User: anonymous   Login
Location: Prague
(50.0830°N, 14.4670°E)
Time: 14:19:53
(UTC+01:00)
Language:

STARLINK-1759 - Orbit

View from above orbital plane
View from above orbital plane
View from above satellite
View from above satellite

Ground track
Ground track

The orbit data is extracted from the following two-line orbital elements,

1 46340C 20062S   20331.15661427  .00004435  00000-0  30374-3 0  3314
2 46340  53.0002  38.6316 0001403  74.6626   6.1183 15.05582893    11
Epoch (UTC): 26 November 2020 03:45:31
Eccentricity: 0.0001403
inclination: 53.0002°
perigee height: 549 km
apogee height: 550 km
right ascension of ascending node: 38.6316°
argument of perigee: 74.6626°
revolutions per day: 15.05582893
mean anomaly at epoch: 6.1183°
orbit number at epoch: 1

The dashed part of the orbit path shows where the satellite is in the earth's shadow,  

DLR